Location: Castle
(40.7167°S, 175.9500°E)
Time: 20:10:35
(UTC+00:00)

AAUSAT CUBESAT 2 - Visible Passes

Search period start: 05 December 2024 00:00
Search period end: 15 December 2024 00:00
Orbit: 457 x 460 km, 97.6° (Epoch: 05 December)

Date Brightness Start Highest point End Pass type
(mag) Time Alt. Az. Time Alt. Az. Time Alt. Az.
06 Dec ? 15:59:49 10° NNE 16:03:09 45° ESE 16:06:32 10° S visible
07 Dec ? 15:28:24 10° ENE 15:30:48 18° ESE 15:33:14 10° SSE visible
09 Dec ? 15:54:44 10° NE 15:57:58 37° ESE 16:01:14 10° S visible
10 Dec ? 15:23:12 10° ENE 15:25:15 15° ESE 15:27:18 10° SSE visible
12 Dec ? 15:48:30 10° NE 15:51:33 30° ESE 15:54:39 10° S visible
13 Dec ? 15:17:01 10° E 15:18:28 12° ESE 15:19:57 10° SE visible
